Wetterdaten: Woche 06.02.06 - 12.02.06 (KW6)
Datum Zeit Temperatur Luftfeuchte Luftdruck Niederschlag Windrichtung Wind
06.02.2006 00:00 -3,5 C 77 % 1025 hPa 0,0 l/m N 0,0 km/h (0 Bft)
06.02.2006 01:00 -3,8 C 81 % 1025 hPa 0,0 l/m S 0,7 km/h (0 Bft)
06.02.2006 02:00 -3,8 C 83 % 1025 hPa 0,0 l/m S 2,2 km/h (1 Bft)
06.02.2006 03:00 -3,8 C 86 % 1025 hPa 0,0 l/m S 6,8 km/h (2 Bft)
06.02.2006 04:00 -3,7 C 88 % 1025 hPa 0,0 l/m S-SW 8,0 km/h (2 Bft)
06.02.2006 05:00 -3,7 C 89 % 1025 hPa 0,0 l/m S-SW 9,0 km/h (2 Bft)
06.02.2006 06:00 -3,6 C 90 % 1025 hPa 0,0 l/m S-SW 7,4 km/h (2 Bft)
06.02.2006 07:00 -3,6 C 90 % 1025 hPa 0,0 l/m S-SW 5,8 km/h (2 Bft)
06.02.2006 08:00 -3,3 C 91 % 1026 hPa 0,0 l/m S-SW 7,0 km/h (2 Bft)
06.02.2006 09:00 -2,8 C 89 % 1026 hPa 0,0 l/m S-SW 9,5 km/h (2 Bft)
06.02.2006 10:00 -1,9 C 84 % 1026 hPa 0,0 l/m S 9,2 km/h (2 Bft)
06.02.2006 11:00 -0,5 C 75 % 1026 hPa 0,0 l/m SO 5,0 km/h (1 Bft)
06.02.2006 12:00 0,4 C 68 % 1026 hPa 0,0 l/m S-SW 1,2 km/h (1 Bft)
06.02.2006 13:00 1,0 C 64 % 1025 hPa 0,0 l/m N 0,0 km/h (0 Bft)
06.02.2006 14:00 1,3 C 61 % 1025 hPa 0,0 l/m W 1,4 km/h (1 Bft)
06.02.2006 15:00 1,1 C 65 % 1025 hPa 0,0 l/m N 3,9 km/h (1 Bft)
06.02.2006 16:00 0,8 C 66 % 1025 hPa 0,0 l/m N 0,0 km/h (0 Bft)
06.02.2006 17:00 0,3 C 70 % 1024 hPa 0,0 l/m N 0,0 km/h (0 Bft)
06.02.2006 18:00 -0,2 C 73 % 1025 hPa 0,0 l/m N 0,0 km/h (0 Bft)
06.02.2006 19:00 -0,6 C 76 % 1025 hPa 0,0 l/m N 0,0 km/h (0 Bft)
06.02.2006 20:00 -0,8 C 78 % 1025 hPa 0,0 l/m SW 2,2 km/h (1 Bft)
06.02.2006 21:00 -1,1 C 81 % 1025 hPa 0,0 l/m S-SW 0,3 km/h (0 Bft)
06.02.2006 22:00 -1,2 C 81 % 1025 hPa 0,0 l/m S-SW 3,8 km/h (1 Bft)
06.02.2006 23:00 -0,9 C 79 % 1024 hPa 0,0 l/m S-SW 4,2 km/h (1 Bft)
07.02.2006 00:00 -1,1 C 80 % 1024 hPa 0,0 l/m S-SW 7,3 km/h (2 Bft)
07.02.2006 01:00 -1,1 C 81 % 1023 hPa 0,0 l/m S-SW 1,5 km/h (1 Bft)
07.02.2006 02:00 -0,5 C 79 % 1023 hPa 0,0 l/m S-SW 10,5 km/h (2 Bft)
07.02.2006 03:00 -0,3 C 77 % 1023 hPa 0,0 l/m W-SW 13,8 km/h (3 Bft)
07.02.2006 04:00 -0,7 C 82 % 1023 hPa 0,0 l/m SW 13,6 km/h (3 Bft)
07.02.2006 05:00 -0,4 C 83 % 1022 hPa 0,0 l/m SW 12,5 km/h (3 Bft)
07.02.2006 06:00 -0,1 C 83 % 1022 hPa 0,0 l/m SW 15,6 km/h (3 Bft)
07.02.2006 07:00 -0,1 C 87 % 1022 hPa 0,0 l/m SW 16,2 km/h (3 Bft)
07.02.2006 08:00 0,3 C 87 % 1022 hPa 0,0 l/m W-SW 17,5 km/h (3 Bft)
07.02.2006 09:00 0,5 C 86 % 1022 hPa 0,0 l/m W-SW 17,6 km/h (3 Bft)
07.02.2006 10:00 0,8 C 85 % 1022 hPa 0,0 l/m W-SW 18,5 km/h (3 Bft)
07.02.2006 11:00 1,0 C 88 % 1022 hPa 0,0 l/m SW 15,4 km/h (3 Bft)
07.02.2006 12:00 1,1 C 87 % 1022 hPa 0,0 l/m SW 21,7 km/h (4 Bft)
07.02.2006 13:00 1,6 C 80 % 1021 hPa 0,0 l/m SW 20,0 km/h (4 Bft)
07.02.2006 14:00 1,7 C 78 % 1021 hPa 0,0 l/m W-SW 20,2 km/h (4 Bft)
07.02.2006 15:00 1,8 C 76 % 1020 hPa 0,0 l/m W-SW 20,7 km/h (4 Bft)
07.02.2006 16:00 1,6 C 77 % 1020 hPa 0,0 l/m W-SW 22,0 km/h (4 Bft)
07.02.2006 17:00 1,4 C 78 % 1020 hPa 0,0 l/m W-SW 17,7 km/h (3 Bft)
07.02.2006 18:00 1,2 C 82 % 1020 hPa 0,0 l/m W-SW 16,9 km/h (3 Bft)
07.02.2006 19:00 0,8 C 92 % 1020 hPa 0,0 l/m SW 15,0 km/h (3 Bft)
07.02.2006 20:00 0,6 C 95 % 1020 hPa 0,0 l/m SW 16,0 km/h (3 Bft)
07.02.2006 21:00 0,4 C 99 % 1020 hPa 0,0 l/m SW 14,4 km/h (3 Bft)
07.02.2006 22:00 0,5 C 98 % 1019 hPa 0,0 l/m W-SW 16,3 km/h (3 Bft)
07.02.2006 23:00 0,6 C 95 % 1018 hPa 0,0 l/m W-SW 18,1 km/h (3 Bft)
08.02.2006 00:00 0,8 C 90 % 1018 hPa 0,0 l/m SW 18,0 km/h (3 Bft)
08.02.2006 01:00 0,8 C 87 % 1017 hPa 0,0 l/m W-SW 18,5 km/h (3 Bft)
08.02.2006 02:00 0,9 C 85 % 1016 hPa 0,0 l/m W-SW 16,4 km/h (3 Bft)
08.02.2006 03:00 0,8 C 83 % 1015 hPa 0,0 l/m W-SW 18,4 km/h (3 Bft)
08.02.2006 04:00 0,8 C 83 % 1014 hPa 0,0 l/m SW 16,5 km/h (3 Bft)
08.02.2006 05:00 0,7 C 82 % 1014 hPa 0,0 l/m SW 16,7 km/h (3 Bft)
08.02.2006 06:00 0,6 C 80 % 1012 hPa 0,0 l/m W-SW 15,2 km/h (3 Bft)
08.02.2006 07:00 0,6 C 76 % 1012 hPa 0,0 l/m W-SW 14,6 km/h (3 Bft)
08.02.2006 08:00 0,6 C 73 % 1011 hPa 0,0 l/m SW 17,2 km/h (3 Bft)
08.02.2006 09:00 0,7 C 71 % 1011 hPa 0,0 l/m W-SW 19,2 km/h (3 Bft)
08.02.2006 10:00 0,9 C 71 % 1010 hPa 0,0 l/m W-SW 24,4 km/h (4 Bft)
08.02.2006 11:00 0,8 C 73 % 1009 hPa 0,0 l/m SW 24,4 km/h (4 Bft)
08.02.2006 12:00 1,2 C 70 % 1008 hPa 0,0 l/m W-SW 25,2 km/h (4 Bft)
08.02.2006 13:00 0,8 C 81 % 1007 hPa 0,0 l/m SW 22,8 km/h (4 Bft)
08.02.2006 14:00 0,8 C 87 % 1006 hPa 1,0 l/m W-SW 25,3 km/h (4 Bft)
08.02.2006 15:00 0,7 C 89 % 1006 hPa 0,0 l/m SW 20,8 km/h (4 Bft)
08.02.2006 16:00 0,5 C 96 % 1007 hPa 0,0 l/m W-SW 18,0 km/h (3 Bft)
08.02.2006 17:00 0,7 C 92 % 1007 hPa 0,0 l/m W-SW 18,6 km/h (3 Bft)
08.02.2006 18:00 0,8 C 91 % 1008 hPa 0,0 l/m W-SW 19,4 km/h (3 Bft)
08.02.2006 19:00 0,9 C 89 % 1008 hPa 0,0 l/m W-SW 18,2 km/h (3 Bft)
08.02.2006 20:00 0,9 C 91 % 1008 hPa 0,0 l/m W-SW 16,0 km/h (3 Bft)
08.02.2006 21:00 0,7 C 90 % 1008 hPa 0,0 l/m W-SW 16,1 km/h (3 Bft)
08.02.2006 22:00 0,1 C 90 % 1008 hPa 0,0 l/m W-SW 14,5 km/h (3 Bft)
08.02.2006 23:00 0,0 C 91 % 1008 hPa 0,0 l/m W-SW 13,9 km/h (3 Bft)
09.02.2006 00:00 -0,2 C 91 % 1008 hPa 0,0 l/m W-SW 14,7 km/h (3 Bft)
09.02.2006 01:00 -0,2 C 90 % 1008 hPa 0,0 l/m W-SW 13,2 km/h (3 Bft)
09.02.2006 02:00 -0,3 C 87 % 1009 hPa 0,0 l/m W-SW 13,7 km/h (3 Bft)
09.02.2006 03:00 -1,0 C 87 % 1009 hPa 0,0 l/m W-SW 13,5 km/h (3 Bft)
09.02.2006 04:00 -0,9 C 90 % 1009 hPa 0,0 l/m W-SW 12,6 km/h (3 Bft)
09.02.2006 05:00 -0,8 C 87 % 1009 hPa 0,0 l/m W-SW 12,5 km/h (3 Bft)
09.02.2006 06:00 -1,1 C 85 % 1009 hPa 0,0 l/m W-SW 12,9 km/h (3 Bft)
09.02.2006 07:00 -1,5 C 84 % 1009 hPa 0,0 l/m W-SW 12,1 km/h (2 Bft)
09.02.2006 08:00 -1,2 C 81 % 1009 hPa 0,0 l/m SW 14,4 km/h (3 Bft)
09.02.2006 09:00 -0,6 C 84 % 1009 hPa 0,0 l/m W-SW 14,1 km/h (3 Bft)
09.02.2006 10:00 0,5 C 83 % 1008 hPa 0,0 l/m SW 17,1 km/h (3 Bft)
09.02.2006 11:00 1,1 C 76 % 1008 hPa 0,0 l/m W-SW 20,7 km/h (4 Bft)
09.02.2006 12:00 1,6 C 70 % 1007 hPa 0,0 l/m SW 19,5 km/h (3 Bft)
09.02.2006 13:00 1,6 C 73 % 1007 hPa 0,0 l/m W-SW 21,9 km/h (4 Bft)
09.02.2006 14:00 1,5 C 79 % 1006 hPa 0,0 l/m W-SW 20,8 km/h (4 Bft)
09.02.2006 15:00 0,5 C 82 % 1007 hPa 0,0 l/m W 25,2 km/h (4 Bft)
09.02.2006 16:00 -0,2 C 77 % 1008 hPa 0,0 l/m W 23,5 km/h (4 Bft)
09.02.2006 17:00 -0,8 C 71 % 1009 hPa 0,0 l/m W 18,8 km/h (3 Bft)
09.02.2006 18:00 -1,9 C 66 % 1010 hPa 0,0 l/m W 17,2 km/h (3 Bft)
09.02.2006 19:00 -2,4 C 69 % 1010 hPa 0,0 l/m SW 13,3 km/h (3 Bft)
09.02.2006 20:00 -3,2 C 73 % 1011 hPa 0,0 l/m SW 10,1 km/h (2 Bft)
09.02.2006 21:00 -3,1 C 73 % 1011 hPa 0,0 l/m SW 14,4 km/h (3 Bft)
09.02.2006 22:00 -2,6 C 71 % 1011 hPa 0,0 l/m SW 15,5 km/h (3 Bft)
09.02.2006 23:00 -2,3 C 71 % 1011 hPa 0,0 l/m W-SW 16,7 km/h (3 Bft)
10.02.2006 00:00 -2,3 C 73 % 1012 hPa 0,0 l/m W-SW 16,2 km/h (3 Bft)
10.02.2006 01:00 -2,5 C 76 % 1012 hPa 0,0 l/m W-SW 11,7 km/h (2 Bft)
10.02.2006 02:00 -2,5 C 77 % 1012 hPa 0,0 l/m W-SW 16,3 km/h (3 Bft)
10.02.2006 03:00 -2,7 C 78 % 1013 hPa 0,0 l/m W-SW 14,7 km/h (3 Bft)
10.02.2006 04:00 -2,3 C 77 % 1013 hPa 0,0 l/m W-SW 14,1 km/h (3 Bft)
10.02.2006 05:00 -2,2 C 77 % 1013 hPa 0,0 l/m W 18,5 km/h (3 Bft)
10.02.2006 06:00 -2,3 C 77 % 1013 hPa 0,0 l/m W-SW 16,9 km/h (3 Bft)
10.02.2006 07:00 -2,3 C 76 % 1013 hPa 0,0 l/m W-SW 18,3 km/h (3 Bft)
10.02.2006 08:00 -2,1 C 76 % 1014 hPa 0,0 l/m W-SW 17,0 km/h (3 Bft)
10.02.2006 09:00 -1,7 C 74 % 1014 hPa 0,0 l/m W-SW 19,0 km/h (3 Bft)
10.02.2006 10:00 -1,5 C 76 % 1015 hPa 0,0 l/m W-SW 19,8 km/h (3 Bft)
10.02.2006 11:00 -1,3 C 79 % 1015 hPa 0,0 l/m SW 19,2 km/h (3 Bft)
10.02.2006 12:00 -0,9 C 79 % 1015 hPa 0,0 l/m W 17,9 km/h (3 Bft)
10.02.2006 13:00 -0,6 C 81 % 1015 hPa 0,0 l/m W-SW 16,3 km/h (3 Bft)
10.02.2006 14:00 -0,6 C 80 % 1015 hPa 0,0 l/m W 19,3 km/h (3 Bft)
10.02.2006 15:00 -0,7 C 83 % 1016 hPa 0,0 l/m W-SW 15,4 km/h (3 Bft)
10.02.2006 16:00 -0,9 C 84 % 1016 hPa 0,0 l/m W-SW 15,6 km/h (3 Bft)
10.02.2006 17:00 -1,3 C 90 % 1017 hPa 0,0 l/m W-SW 12,4 km/h (3 Bft)
10.02.2006 18:00 -1,4 C 94 % 1017 hPa 0,0 l/m W-SW 10,0 km/h (2 Bft)
10.02.2006 19:00 -1,4 C 95 % 1018 hPa 0,0 l/m W-SW 10,5 km/h (2 Bft)
10.02.2006 20:00 -1,4 C 93 % 1018 hPa 0,0 l/m W-SW 11,0 km/h (2 Bft)
10.02.2006 21:00 -1,4 C 92 % 1019 hPa 0,0 l/m W-SW 12,3 km/h (3 Bft)
10.02.2006 22:00 -1,4 C 92 % 1019 hPa 0,0 l/m W 11,2 km/h (2 Bft)
10.02.2006 23:00 -1,8 C 93 % 1019 hPa 0,0 l/m W 4,0 km/h (1 Bft)
11.02.2006 00:00 -1,9 C 93 % 1020 hPa 0,0 l/m N 6,6 km/h (2 Bft)
11.02.2006 01:00 -2,4 C 93 % 1021 hPa 0,0 l/m N 0,0 km/h (0 Bft)
11.02.2006 02:00 -4,0 C 92 % 1021 hPa 0,0 l/m W-NW 2,3 km/h (1 Bft)
11.02.2006 03:00 -5,0 C 92 % 1021 hPa 0,0 l/m N 0,0 km/h (0 Bft)
11.02.2006 04:00 -5,7 C 91 % 1022 hPa 0,0 l/m N 0,0 km/h (0 Bft)
11.02.2006 05:00 -6,3 C 91 % 1022 hPa 0,0 l/m N 0,0 km/h (0 Bft)
11.02.2006 06:00 -5,4 C 92 % 1022 hPa 0,0 l/m N 0,0 km/h (0 Bft)
11.02.2006 07:00 -5,1 C 93 % 1023 hPa 0,0 l/m N 0,0 km/h (0 Bft)
11.02.2006 08:00 -4,8 C 94 % 1024 hPa 0,0 l/m N 0,0 km/h (0 Bft)
11.02.2006 09:00 -3,6 C 94 % 1024 hPa 0,0 l/m N 0,0 km/h (0 Bft)
11.02.2006 10:00 -1,8 C 91 % 1024 hPa 0,0 l/m N-NO 3,0 km/h (1 Bft)
11.02.2006 11:00 -1,0 C 79 % 1024 hPa 0,0 l/m O-NO 9,9 km/h (2 Bft)
11.02.2006 12:00 -1,0 C 75 % 1024 hPa 0,0 l/m NO 8,0 km/h (2 Bft)
11.02.2006 13:00 0,5 C 67 % 1024 hPa 0,0 l/m O 4,6 km/h (1 Bft)
11.02.2006 14:00 0,6 C 63 % 1024 hPa 0,0 l/m N 0,0 km/h (0 Bft)
11.02.2006 15:00 0,3 C 63 % 1024 hPa 0,0 l/m N 0,0 km/h (0 Bft)
11.02.2006 16:00 -0,4 C 64 % 1024 hPa 0,0 l/m N 0,0 km/h (0 Bft)
11.02.2006 17:00 -1,6 C 67 % 1024 hPa 0,0 l/m N 0,0 km/h (0 Bft)
11.02.2006 18:00 -3,6 C 71 % 1024 hPa 0,0 l/m N 0,0 km/h (0 Bft)
11.02.2006 19:00 -5,1 C 76 % 1024 hPa 0,0 l/m N 0,0 km/h (0 Bft)
11.02.2006 20:00 -6,2 C 79 % 1024 hPa 0,0 l/m N 0,0 km/h (0 Bft)
11.02.2006 21:00 -6,8 C 82 % 1024 hPa 0,0 l/m N 0,0 km/h (0 Bft)
11.02.2006 22:00 -7,6 C 84 % 1025 hPa 0,0 l/m N 0,0 km/h (0 Bft)
11.02.2006 23:00 -8,6 C 85 % 1025 hPa 0,0 l/m N 0,0 km/h (0 Bft)
12.02.2006 00:00 -9,2 C 86 % 1025 hPa 0,0 l/m N 0,0 km/h (0 Bft)
12.02.2006 01:00 -9,0 C 88 % 1025 hPa 0,0 l/m N 0,0 km/h (0 Bft)
12.02.2006 02:00 -7,8 C 92 % 1025 hPa 0,0 l/m N 0,0 km/h (0 Bft)
12.02.2006 03:00 -7,6 C 94 % 1025 hPa 0,0 l/m N 0,0 km/h (0 Bft)
12.02.2006 04:00 -7,6 C 94 % 1025 hPa 0,0 l/m N 0,0 km/h (0 Bft)
12.02.2006 05:00 -7,9 C 94 % 1025 hPa 0,0 l/m N 0,0 km/h (0 Bft)
12.02.2006 06:00 -8,7 C 94 % 1024 hPa 0,0 l/m N 0,0 km/h (0 Bft)
12.02.2006 07:00 -9,7 C 93 % 1025 hPa 0,0 l/m N 0,0 km/h (0 Bft)
12.02.2006 08:00 -9,2 C 93 % 1025 hPa 0,0 l/m N 0,0 km/h (0 Bft)
12.02.2006 09:00 -8,7 C 92 % 1026 hPa 0,0 l/m N 0,0 km/h (0 Bft)
12.02.2006 10:00 -7,7 C 92 % 1026 hPa 0,0 l/m N 0,0 km/h (0 Bft)
12.02.2006 11:00 -6,3 C 93 % 1026 hPa 0,0 l/m N 0,0 km/h (0 Bft)
12.02.2006 12:00 -5,5 C 91 % 1025 hPa 0,0 l/m N 0,0 km/h (0 Bft)
12.02.2006 13:00 -4,7 C 90 % 1025 hPa 0,0 l/m N 0,0 km/h (0 Bft)
12.02.2006 14:00 -4,3 C 86 % 1024 hPa 0,0 l/m N 0,0 km/h (0 Bft)
12.02.2006 15:00 -3,4 C 76 % 1024 hPa 0,0 l/m N 0,0 km/h (0 Bft)
12.02.2006 16:00 -3,9 C 75 % 1024 hPa 0,0 l/m N 0,0 km/h (0 Bft)
12.02.2006 17:00 -5,3 C 76 % 1023 hPa 0,0 l/m N 0,0 km/h (0 Bft)
12.02.2006 18:00 -6,9 C 78 % 1023 hPa 0,0 l/m N 0,0 km/h (0 Bft)
12.02.2006 19:00 -8,2 C 80 % 1023 hPa 0,0 l/m N 0,0 km/h (0 Bft)
12.02.2006 20:00 -9,5 C 81 % 1023 hPa 0,0 l/m N 0,0 km/h (0 Bft)
12.02.2006 21:00 -10,8 C 81 % 1024 hPa 0,0 l/m N 0,0 km/h (0 Bft)
12.02.2006 22:00 -11,6 C 81 % 1024 hPa 0,0 l/m N 0,0 km/h (0 Bft)
12.02.2006 23:00 -11,3 C 81 % 1023 hPa 0,0 l/m N 0,0 km/h (0 Bft)
Min-Datum _ 12.02.06 06.02.06 08.02.06 - - 06.02.06
_ Min-Zeit 22:34 14:03 13:48 - - 00:00
Minimum _ -12,0 C 61 % 1006 hPa - - 0,0 km/h (0 Bft)
Max-Datum _ 07.02.06 07.02.06 06.02.06 08.02.06 - 09.02.06
_ Max-Zeit 15:15 21:28 08:33 14:27 - 15:19
Maximum _ 1,9 C 100 % 1026 hPa 1,0 l/m - 40,3 km/h
W (6 Bft)
Durchschnitt _ -2,0 C 82 % 1019 hPa #1,0 l/m W-SW 10,1 km/h (2 Bft)

Durchschnitt Minimum Temp.-2,3 C
Durchschnitt Maximum Temp.-1,7 C